User: anonymous   Login
Location: B
(0.0000°N, 0.0000°E)
Time: 14:42:38
(UTC+01:00)
Language:

Cosmos 1025 Rocket - Orbit

View from above orbital plane
View from above orbital plane
View from above satellite
View from above satellite

Ground track
Ground track

The orbit data is extracted from the following two-line orbital elements,

1 10974U 78067B   14302.16193707  .00000710  00000-0  77058-4 0  4481
2 10974 082.4837 000.0814 0016047 291.0392 123.2763 14.86712738964608
Epoch (UTC): 29 October 2014 03:53:11
Eccentricity: 0.0016047
inclination: 82.4837°
perigee height: 597 km
apogee height: 619 km
right ascension of ascending node: 0.0814°
argument of perigee: 291.0392°
revolutions per day: 14.86712738
mean anomaly at epoch: 123.2763°
orbit number at epoch: 96460

The dashed part of the orbit path shows where the satellite is in the earth's shadow,  

DLR